Time,TemperatureF,DewpointF,PressureIn,WindDirection,WindDirectionDegrees,WindSpeedMPH,WindSpeedGustMPH,Humidity,HourlyPrecipIn,Conditions,Clouds,dailyrainin,SoftwareType,DateUTC
2013-03-02 00:00:00,15.2,12.3,30.33,NNW,328,2.0,4.0,88,0.00,,SKC,0.00,VWS V14.01,2013-03-02 06:00:00,
2013-03-02 00:05:00,15.1,12.2,30.33,NW,325,2.0,3.0,88,0.00,,SKC,0.00,VWS V14.01,2013-03-02 06:05:00,
2013-03-02 00:10:00,15.0,12.1,30.33,WNW,293,2.0,4.0,88,0.00,,SKC,0.00,VWS V14.01,2013-03-02 06:10:00,
2013-03-02 00:15:00,14.9,12.0,30.34,NW,316,2.0,4.0,88,0.00,,SKC,0.00,VWS V14.01,2013-03-02 06:15:00,
2013-03-02 00:20:00,14.8,11.9,30.34,NW,323,0.0,4.0,88,0.00,,SKC,0.00,VWS V14.01,2013-03-02 06:20:00,
2013-03-02 00:25:00,14.7,11.8,30.34,NW,323,1.0,4.0,88,0.00,,SKC,0.00,VWS V14.01,2013-03-02 06:25:00,
2013-03-02 00:30:00,14.5,11.6,30.34,NNW,327,0.0,4.0,88,0.00,,SKC,0.00,VWS V14.01,2013-03-02 06:30:00,
2013-03-02 00:35:00,14.4,11.5,30.34,WNW,296,1.0,3.0,88,0.00,,SKC,0.00,VWS V14.01,2013-03-02 06:35:00,
2013-03-02 00:40:00,14.3,11.4,30.34,NW,326,2.0,3.0,88,0.00,,SKC,0.00,VWS V14.01,2013-03-02 06:40:00,
2013-03-02 00:45:00,14.1,11.2,30.34,NNW,332,1.0,3.0,88,0.00,,SKC,0.00,VWS V14.01,2013-03-02 06:45:00,
2013-03-02 00:50:00,14.0,11.1,30.34,NW,316,2.0,3.0,88,0.00,,SKC,0.00,VWS V14.01,2013-03-02 06:50:00,
2013-03-02 00:55:00,13.8,10.9,30.34,NNW,333,1.0,3.0,88,0.00,,SKC,0.00,VWS V14.01,2013-03-02 06:55:00,
2013-03-02 01:00:00,13.6,10.7,30.34,NW,322,1.0,3.0,88,0.00,,SKC,0.00,VWS V14.01,2013-03-02 07:00:00,
2013-03-02 01:05:00,13.5,10.9,30.33,NW,319,2.0,3.0,89,0.00,,SKC,0.00,VWS V14.01,2013-03-02 07:05:00,
2013-03-02 01:10:00,13.4,10.8,30.33,NW,321,2.0,3.0,89,0.00,,SKC,0.00,VWS V14.01,2013-03-02 07:10:00,
2013-03-02 01:15:00,13.4,10.8,30.33,NNW,329,1.0,3.0,89,0.00,,SKC,0.00,VWS V14.01,2013-03-02 07:15:00,
2013-03-02 01:20:00,13.3,10.7,30.33,NNW,327,0.0,3.0,89,0.00,,SKC,0.00,VWS V14.01,2013-03-02 07:20:00,
2013-03-02 01:25:00,13.2,10.6,30.33,NNW,342,1.0,3.0,89,0.00,,SKC,0.00,VWS V14.01,2013-03-02 07:25:00,
2013-03-02 01:30:00,13.1,10.5,30.33,NW,319,1.0,3.0,89,0.00,,SKC,0.00,VWS V14.01,2013-03-02 07:30:00,
2013-03-02 01:35:00,13.0,10.4,30.33,NW,319,1.0,2.0,89,0.00,,SKC,0.00,VWS V14.01,2013-03-02 07:35:00,
2013-03-02 01:40:00,12.8,10.2,30.33,NW,319,1.0,2.0,89,0.00,,SKC,0.00,VWS V14.01,2013-03-02 07:40:00,
2013-03-02 01:45:00,12.7,10.1,30.33,North,352,1.0,2.0,89,0.00,,SKC,0.00,VWS V14.01,2013-03-02 07:45:00,
2013-03-02 01:50:00,12.6,10.0,30.33,NNE,15,0.0,3.0,89,0.00,,SKC,0.00,VWS V14.01,2013-03-02 07:50:00,
2013-03-02 01:55:00,12.6,10.0,30.33,NNW,337,1.0,3.0,89,0.00,,SKC,0.00,VWS V14.01,2013-03-02 07:55:00,
2013-03-02 02:00:00,12.5,10.1,30.33,NW,323,1.0,3.0,90,0.00,,SKC,0.00,VWS V14.01,2013-03-02 08:00:00,
2013-03-02 02:05:00,12.4,10.0,30.33,NNW,333,1.0,2.0,90,0.00,,SKC,0.00,VWS V14.01,2013-03-02 08:05:00,
2013-03-02 02:10:00,12.3,9.9,30.33,NNW,342,0.0,2.0,90,0.00,,SKC,0.00,VWS V14.01,2013-03-02 08:10:00,
2013-03-02 02:15:00,12.2,9.8,30.33,NW,319,0.0,2.0,90,0.00,,SKC,0.00,VWS V14.01,2013-03-02 08:15:00,
2013-03-02 02:20:00,12.1,9.7,30.32,NW,319,1.0,2.0,90,0.00,,SKC,0.00,VWS V14.01,2013-03-02 08:20:00,
2013-03-02 02:25:00,12.1,9.7,30.32,WNW,298,1.0,2.0,90,0.00,,SKC,0.00,VWS V14.01,2013-03-02 08:25:00,
2013-03-02 02:30:00,12.0,9.6,30.33,NNW,342,1.0,2.0,90,0.00,,SKC,0.00,VWS V14.01,2013-03-02 08:30:00,
2013-03-02 02:35:00,11.8,9.4,30.32,NW,308,0.0,2.0,90,0.00,,SKC,0.00,VWS V14.01,2013-03-02 08:35:00,
2013-03-02 02:40:00,11.6,9.2,30.33,NW,311,1.0,2.0,90,0.00,,SKC,0.00,VWS V14.01,2013-03-02 08:40:00,
2013-03-02 02:45:00,11.5,9.1,30.33,NW,319,1.0,2.0,90,0.00,,SKC,0.00,VWS V14.01,2013-03-02 08:45:00,
2013-03-02 02:50:00,11.4,9.0,30.33,NW,323,1.0,2.0,90,0.00,,SKC,0.00,VWS V14.01,2013-03-02 08:50:00,
2013-03-02 02:55:00,11.4,9.0,30.33,NW,304,1.0,2.0,90,0.00,,SKC,0.00,VWS V14.01,2013-03-02 08:55:00,
2013-03-02 03:00:00,11.4,9.0,30.33,NW,319,0.0,2.0,90,0.00,,SKC,0.00,VWS V14.01,2013-03-02 09:00:00,
2013-03-02 03:05:00,11.4,9.0,30.33,NW,319,1.0,2.0,90,0.00,,SKC,0.00,VWS V14.01,2013-03-02 09:05:00,
2013-03-02 03:10:00,11.3,8.9,30.33,NW,311,1.0,2.0,90,0.00,,SKC,0.00,VWS V14.01,2013-03-02 09:10:00,
2013-03-02 03:15:00,11.3,8.9,30.33,NNW,328,1.0,2.0,90,0.00,,SKC,0.00,VWS V14.01,2013-03-02 09:15:00,
2013-03-02 03:20:00,11.2,8.9,30.33,NNW,333,1.0,2.0,90,0.00,,SKC,0.00,VWS V14.01,2013-03-02 09:20:00,
2013-03-02 03:25:00,11.1,8.8,30.33,North,360,1.0,2.0,90,0.00,,SKC,0.00,VWS V14.01,2013-03-02 09:25:00,
2013-03-02 03:30:00,11.1,8.8,30.33,NNW,328,1.0,2.0,90,0.00,,SKC,0.00,VWS V14.01,2013-03-02 09:30:00,
2013-03-02 03:35:00,11.0,8.6,30.32,NNW,340,0.0,1.0,90,0.00,,SKC,0.00,VWS V14.01,2013-03-02 09:35:00,
2013-03-02 03:40:00,11.0,8.6,30.33,North,4,1.0,1.0,90,0.00,,SKC,0.00,VWS V14.01,2013-03-02 09:40:00,
2013-03-02 03:45:00,10.9,8.8,30.33,NW,323,1.0,2.0,91,0.00,,SKC,0.00,VWS V14.01,2013-03-02 09:45:00,
2013-03-02 03:50:00,10.9,8.6,30.33,North,8,2.0,2.0,90,0.00,,SKC,0.00,VWS V14.01,2013-03-02 09:50:00,
2013-03-02 03:55:00,10.9,8.6,30.33,NNW,339,1.0,2.0,90,0.00,,SKC,0.00,VWS V14.01,2013-03-02 09:55:00,
2013-03-02 04:00:00,10.8,8.4,30.33,NNW,347,2.0,2.0,90,0.00,,SKC,0.00,VWS V14.01,2013-03-02 10:00:00,
2013-03-02 04:05:00,10.7,8.4,30.33,NNW,337,0.0,2.0,90,0.00,,SKC,0.00,VWS V14.01,2013-03-02 10:05:00,
2013-03-02 04:10:00,10.6,8.2,30.33,North,350,2.0,2.0,90,0.00,,SKC,0.00,VWS V14.01,2013-03-02 10:10:00,
2013-03-02 04:15:00,10.6,8.2,30.33,NNW,333,1.0,2.0,90,0.00,,SKC,0.00,VWS V14.01,2013-03-02 10:15:00,
2013-03-02 04:20:00,10.5,8.1,30.33,NNE,26,1.0,2.0,90,0.00,,SKC,0.00,VWS V14.01,2013-03-02 10:20:00,
2013-03-02 04:25:00,10.4,8.1,30.33,North,5,1.0,2.0,90,0.00,,SKC,0.00,VWS V14.01,2013-03-02 10:25:00,
2013-03-02 04:30:00,10.3,8.0,30.33,NNW,337,1.0,2.0,90,0.00,,SKC,0.00,VWS V14.01,2013-03-02 10:30:00,
2013-03-02 04:35:00,10.2,7.9,30.33,NW,322,1.0,2.0,90,0.00,,SKC,0.00,VWS V14.01,2013-03-02 10:35:00,
2013-03-02 04:40:00,10.2,7.9,30.33,NNW,348,1.0,2.0,90,0.00,,SKC,0.00,VWS V14.01,2013-03-02 10:40:00,
2013-03-02 04:45:00,10.1,7.8,30.33,NNW,346,1.0,2.0,90,0.00,,SKC,0.00,VWS V14.01,2013-03-02 10:45:00,
2013-03-02 04:50:00,10.1,7.8,30.33,NNW,334,1.0,2.0,90,0.00,,SKC,0.00,VWS V14.01,2013-03-02 10:50:00,
2013-03-02 04:55:00,10.0,7.7,30.33,NNW,333,1.0,2.0,90,0.00,,SKC,0.00,VWS V14.01,2013-03-02 10:55:00,
2013-03-02 05:00:00,9.9,7.6,30.34,NW,319,2.0,2.0,90,0.00,,SKC,0.00,VWS V14.01,2013-03-02 11:00:00,
2013-03-02 05:05:00,9.8,7.5,30.34,North,352,1.0,2.0,90,0.00,,SKC,0.00,VWS V14.01,2013-03-02 11:05:00,
2013-03-02 05:10:00,9.8,7.5,30.34,North,352,0.0,2.0,90,0.00,,SKC,0.00,VWS V14.01,2013-03-02 11:10:00,
2013-03-02 05:15:00,9.7,7.4,30.34,NNW,347,2.0,2.0,90,0.00,,SKC,0.00,VWS V14.01,2013-03-02 11:15:00,
2013-03-02 05:20:00,9.6,7.3,30.34,NNE,25,1.0,2.0,90,0.00,,SKC,0.00,VWS V14.01,2013-03-02 11:20:00,
2013-03-02 05:25:00,9.6,7.3,30.34,NNE,19,0.0,2.0,90,0.00,,SKC,0.00,VWS V14.01,2013-03-02 11:25:00,
2013-03-02 05:30:00,9.5,7.2,30.34,NNE,20,1.0,2.0,90,0.00,,SKC,0.00,VWS V14.01,2013-03-02 11:30:00,
2013-03-02 05:35:00,9.4,7.1,30.33,North,352,0.0,2.0,90,0.00,,SKC,0.00,VWS V14.01,2013-03-02 11:35:00,
2013-03-02 05:40:00,9.3,7.0,30.33,North,1,1.0,2.0,90,0.00,,SKC,0.00,VWS V14.01,2013-03-02 11:40:00,
2013-03-02 05:45:00,9.2,6.9,30.33,NW,319,0.0,2.0,90,0.00,,SKC,0.00,VWS V14.01,2013-03-02 11:45:00,
2013-03-02 05:50:00,9.1,6.8,30.33,NNW,345,0.0,2.0,90,0.00,,SKC,0.00,VWS V14.01,2013-03-02 11:50:00,
2013-03-02 05:55:00,9.0,6.7,30.33,NNW,345,0.0,2.0,90,0.00,,SKC,0.00,VWS V14.01,2013-03-02 11:55:00,
2013-03-02 06:00:00,8.9,6.6,30.33,NNW,328,0.0,2.0,90,0.00,,SKC,0.00,VWS V14.01,2013-03-02 12:00:00,
2013-03-02 06:05:00,8.9,6.6,30.33,NNW,329,1.0,2.0,90,0.00,,SKC,0.00,VWS V14.01,2013-03-02 12:05:00,
2013-03-02 06:10:00,8.9,6.8,30.33,NW,319,1.0,2.0,91,0.00,,SKC,0.00,VWS V14.01,2013-03-02 12:10:00,
2013-03-02 06:15:00,9.0,6.9,30.34,NNW,330,1.0,2.0,91,0.00,,SKC,0.00,VWS V14.01,2013-03-02 12:15:00,
2013-03-02 06:20:00,8.9,6.6,30.34,NW,326,1.0,2.0,90,0.00,,SKC,0.00,VWS V14.01,2013-03-02 12:20:00,
2013-03-02 06:25:00,8.9,6.6,30.34,NW,319,1.0,2.0,90,0.00,,SKC,0.00,VWS V14.01,2013-03-02 12:25:00,
2013-03-02 06:30:00,8.8,6.5,30.34,NW,322,1.0,2.0,90,0.00,,SKC,0.00,VWS V14.01,2013-03-02 12:30:00,
2013-03-02 06:35:00,8.8,6.5,30.33,North,359,0.0,2.0,90,0.00,,SKC,0.00,VWS V14.01,2013-03-02 12:35:00,
2013-03-02 06:40:00,8.7,6.4,30.33,NNW,343,0.0,2.0,90,0.00,,SKC,0.00,VWS V14.01,2013-03-02 12:40:00,
2013-03-02 06:45:00,8.7,6.4,30.34,NW,326,0.0,2.0,90,0.00,,SKC,0.00,VWS V14.01,2013-03-02 12:45:00,
2013-03-02 06:50:00,8.7,6.4,30.34,NW,324,1.0,2.0,90,0.00,,SKC,0.00,VWS V14.01,2013-03-02 12:50:00,
2013-03-02 06:55:00,8.7,6.6,30.34,NNW,330,1.0,2.0,91,0.00,,SKC,0.00,VWS V14.01,2013-03-02 12:55:00,
2013-03-02 07:00:00,8.9,6.6,30.34,NW,323,1.0,2.0,90,0.00,,SKC,0.00,VWS V14.01,2013-03-02 13:00:00,
2013-03-02 07:30:00,9.8,7.2,30.35,NNW,332,1.0,2.0,89,0.00,,SKC,0.00,VWS V14.01,2013-03-02 13:30:00,
2013-03-02 07:45:00,10.4,7.8,30.35,North,353,3.0,6.0,89,0.00,,SKC,0.00,VWS V14.01,2013-03-02 13:45:00,
2013-03-02 07:50:00,10.6,7.8,30.35,North,359,2.0,6.0,88,0.00,,SKC,0.00,VWS V14.01,2013-03-02 13:50:00,
2013-03-02 07:55:00,10.7,7.8,30.35,North,8,3.0,6.0,88,0.00,,SKC,0.00,VWS V14.01,2013-03-02 13:55:00,
2013-03-02 08:00:00,10.9,8.1,30.35,NNW,343,2.0,6.0,88,0.00,,SKC,0.00,VWS V14.01,2013-03-02 14:00:00,
2013-03-02 08:05:00,11.0,8.1,30.35,NW,323,2.0,3.0,88,0.00,,SKC,0.00,VWS V14.01,2013-03-02 14:05:00,
2013-03-02 08:10:00,11.1,8.2,30.36,North,358,4.0,5.0,88,0.00,,SKC,0.00,VWS V14.01,2013-03-02 14:10:00,
2013-03-02 08:15:00,11.2,8.1,30.36,North,354,3.0,5.0,87,0.00,,SKC,0.00,VWS V14.01,2013-03-02 14:15:00,
2013-03-02 08:20:00,11.4,8.3,30.36,North,356,2.0,5.0,87,0.00,,SKC,0.00,VWS V14.01,2013-03-02 14:20:00,
2013-03-02 08:25:00,11.7,8.6,30.35,North,8,2.0,5.0,87,0.00,,SKC,0.00,VWS V14.01,2013-03-02 14:25:00,
2013-03-02 08:30:00,11.9,8.8,30.35,North,350,1.0,5.0,87,0.00,,SKC,0.00,VWS V14.01,2013-03-02 14:30:00,
2013-03-02 08:35:00,12.1,9.0,30.35,North,5,2.0,4.0,87,0.00,,SKC,0.00,VWS V14.01,2013-03-02 14:35:00,
2013-03-02 08:40:00,12.5,9.4,30.35,NNW,340,0.0,5.0,87,0.00,,SKC,0.00,VWS V14.01,2013-03-02 14:40:00,
2013-03-02 08:45:00,12.8,9.4,30.35,North,6,3.0,5.0,86,0.00,,SKC,0.00,VWS V14.01,2013-03-02 14:45:00,
2013-03-02 08:50:00,13.2,9.8,30.35,North,3,3.0,5.0,86,0.00,,SKC,0.00,VWS V14.01,2013-03-02 14:50:00,
2013-03-02 08:55:00,13.5,10.1,30.35,NW,324,1.0,5.0,86,0.00,,SKC,0.00,VWS V14.01,2013-03-02 14:55:00,
2013-03-02 09:00:00,13.8,10.1,30.36,North,5,2.0,5.0,85,0.00,,SKC,0.00,VWS V14.01,2013-03-02 15:00:00,
2013-03-02 09:05:00,14.1,10.4,30.35,North,350,4.0,5.0,85,0.00,,SKC,0.00,VWS V14.01,2013-03-02 15:05:00,
2013-03-02 09:10:00,14.3,10.6,30.35,NNW,341,1.0,5.0,85,0.00,,SKC,0.00,VWS V14.01,2013-03-02 15:10:00,
2013-03-02 09:15:00,14.6,10.9,30.35,North,4,1.0,5.0,85,0.00,,SKC,0.00,VWS V14.01,2013-03-02 15:15:00,
2013-03-02 09:20:00,15.1,11.1,30.35,North,350,2.0,5.0,84,0.00,,SKC,0.00,VWS V14.01,2013-03-02 15:20:00,
2013-03-02 09:25:00,15.7,12.0,30.35,NNW,330,1.0,5.0,85,0.00,,SKC,0.00,VWS V14.01,2013-03-02 15:25:00,
2013-03-02 09:30:00,16.3,12.3,30.35,North,1,0.0,5.0,84,0.00,,SKC,0.00,VWS V14.01,2013-03-02 15:30:00,
2013-03-02 09:35:00,16.8,12.8,30.35,North,356,2.0,4.0,84,0.00,,SKC,0.00,VWS V14.01,2013-03-02 15:35:00,
2013-03-02 09:40:00,17.1,12.8,30.35,North,5,1.0,4.0,83,0.00,,SKC,0.00,VWS V14.01,2013-03-02 15:40:00,
2013-03-02 09:45:00,17.7,13.1,30.35,NNE,13,2.0,4.0,82,0.00,,SKC,0.00,VWS V14.01,2013-03-02 15:45:00,
2013-03-02 09:50:00,18.0,13.2,30.34,NNE,22,1.0,4.0,81,0.00,,SKC,0.00,VWS V14.01,2013-03-02 15:50:00,
2013-03-02 09:55:00,18.1,13.3,30.34,North,8,2.0,4.0,81,0.00,,SKC,0.00,VWS V14.01,2013-03-02 15:55:00,
2013-03-02 10:00:00,18.5,13.6,30.34,North,356,2.0,4.0,81,0.00,,SKC,0.00,VWS V14.01,2013-03-02 16:00:00,
2013-03-02 10:05:00,18.8,13.9,30.34,NNE,15,2.0,3.0,81,0.00,,SKC,0.00,VWS V14.01,2013-03-02 16:05:00,
2013-03-02 10:10:00,19.0,13.6,30.34,North,6,2.0,4.0,79,0.00,,SKC,0.00,VWS V14.01,2013-03-02 16:10:00,
2013-03-02 10:15:00,19.4,14.0,30.34,North,351,0.0,4.0,79,0.00,,SKC,0.00,VWS V14.01,2013-03-02 16:15:00,
2013-03-02 10:20:00,19.6,14.2,30.34,North,11,2.0,4.0,79,0.00,,SKC,0.00,VWS V14.01,2013-03-02 16:20:00,
2013-03-02 10:25:00,19.8,14.4,30.34,North,5,2.0,4.0,79,0.00,,SKC,0.00,VWS V14.01,2013-03-02 16:25:00,
2013-03-02 10:30:00,20.3,15.1,30.34,NNE,15,1.0,4.0,80,0.00,,SKC,0.00,VWS V14.01,2013-03-02 16:30:00,
2013-03-02 10:35:00,20.8,15.0,30.34,NNE,12,2.0,3.0,78,0.00,,SKC,0.00,VWS V14.01,2013-03-02 16:35:00,
2013-03-02 10:40:00,21.2,15.1,30.33,NNE,15,2.0,3.0,77,0.00,,SKC,0.00,VWS V14.01,2013-03-02 16:40:00,
2013-03-02 10:45:00,21.6,16.1,30.33,North,350,2.0,3.0,79,0.00,,SKC,0.00,VWS V14.01,2013-03-02 16:45:00,
2013-03-02 10:50:00,22.1,16.0,30.33,North,350,3.0,3.0,77,0.00,,SKC,0.00,VWS V14.01,2013-03-02 16:50:00,
2013-03-02 10:55:00,22.7,16.9,30.33,ENE,66,0.0,3.0,78,0.00,,SKC,0.00,VWS V14.01,2013-03-02 16:55:00,
2013-03-02 11:00:00,23.3,16.6,30.34,NNW,346,1.0,3.0,75,0.00,,SKC,0.00,VWS V14.01,2013-03-02 17:00:00,
2013-03-02 11:05:00,23.4,16.4,30.34,WNW,300,1.0,3.0,74,0.00,,SKC,0.00,VWS V14.01,2013-03-02 17:05:00,
2013-03-02 11:10:00,23.2,15.8,30.33,NNW,340,2.0,4.0,73,0.00,,SKC,0.00,VWS V14.01,2013-03-02 17:10:00,
2013-03-02 11:15:00,23.3,15.9,30.33,North,351,2.0,5.0,73,0.00,,SKC,0.00,VWS V14.01,2013-03-02 17:15:00,
2013-03-02 11:20:00,23.0,15.6,30.33,NNE,20,2.0,5.0,73,0.00,,SKC,0.00,VWS V14.01,2013-03-02 17:20:00,
2013-03-02 11:25:00,23.4,16.7,30.33,NW,314,2.0,5.0,75,0.00,,SKC,0.00,VWS V14.01,2013-03-02 17:25:00,
2013-03-02 11:30:00,23.3,15.9,30.33,NNE,19,4.0,5.0,73,0.00,,SKC,0.00,VWS V14.01,2013-03-02 17:30:00,
2013-03-02 11:35:00,23.2,16.2,30.33,NNE,22,2.0,4.0,74,0.00,,SKC,0.00,VWS V14.01,2013-03-02 17:35:00,
2013-03-02 11:40:00,23.4,15.7,30.33,North,9,4.0,6.0,72,0.00,,SKC,0.00,VWS V14.01,2013-03-02 17:40:00,
2013-03-02 11:45:00,23.4,16.0,30.33,NW,316,1.0,6.0,73,0.00,,SKC,0.00,VWS V14.01,2013-03-02 17:45:00,
2013-03-02 11:50:00,23.6,16.2,30.33,NE,36,0.0,6.0,73,0.00,,SKC,0.00,VWS V14.01,2013-03-02 17:50:00,
2013-03-02 11:55:00,23.7,16.3,30.33,North,8,4.0,6.0,73,0.00,,SKC,0.00,VWS V14.01,2013-03-02 17:55:00,
2013-03-02 12:00:00,24.0,16.9,30.33,NNE,13,0.0,8.0,74,0.00,,SKC,0.00,VWS V14.01,2013-03-02 18:00:00,
2013-03-02 12:05:00,24.7,16.6,30.33,NNW,332,1.0,7.0,71,0.00,,SKC,0.00,VWS V14.01,2013-03-02 18:05:00,
2013-03-02 12:10:00,24.8,17.1,30.33,WNW,294,0.0,7.0,72,0.00,,SKC,0.00,VWS V14.01,2013-03-02 18:10:00,
2013-03-02 12:15:00,24.9,17.2,30.32,NNW,331,1.0,7.0,72,0.00,,SKC,0.00,VWS V14.01,2013-03-02 18:15:00,
2013-03-02 12:20:00,25.1,17.0,30.32,WNW,302,2.0,7.0,71,0.00,,SKC,0.00,VWS V14.01,2013-03-02 18:20:00,
2013-03-02 12:25:00,25.7,17.3,30.32,North,354,0.0,7.0,70,0.00,,SKC,0.00,VWS V14.01,2013-03-02 18:25:00,
2013-03-02 12:30:00,25.9,17.1,30.32,NNW,342,3.0,7.0,69,0.00,,SKC,0.00,VWS V14.01,2013-03-02 18:30:00,
2013-03-02 12:35:00,25.5,16.8,30.32,North,356,2.0,6.0,69,0.00,,SKC,0.00,VWS V14.01,2013-03-02 18:35:00,
2013-03-02 12:40:00,25.8,17.0,30.31,NE,53,2.0,6.0,69,0.00,,SKC,0.00,VWS V14.01,2013-03-02 18:40:00,
2013-03-02 12:45:00,25.7,16.6,30.31,NW,319,2.0,6.0,68,0.00,,SKC,0.00,VWS V14.01,2013-03-02 18:45:00,
2013-03-02 12:50:00,25.6,16.5,30.31,NNE,29,1.0,6.0,68,0.00,,SKC,0.00,VWS V14.01,2013-03-02 18:50:00,
2013-03-02 12:55:00,25.8,17.0,30.31,North,7,3.0,6.0,69,0.00,,SKC,0.00,VWS V14.01,2013-03-02 18:55:00,
2013-03-02 13:00:00,26.0,16.9,30.30,North,352,4.0,6.0,68,0.00,,SKC,0.00,VWS V14.01,2013-03-02 19:00:00,
2013-03-02 13:05:00,26.0,17.2,30.30,North,356,1.0,5.0,69,0.00,,SKC,0.00,VWS V14.01,2013-03-02 19:05:00,
2013-03-02 13:10:00,26.5,17.4,30.30,West,278,2.0,5.0,68,0.00,,SKC,0.00,VWS V14.01,2013-03-02 19:10:00,
2013-03-02 13:15:00,26.4,16.9,30.29,North,11,3.0,5.0,67,0.00,,SKC,0.00,VWS V14.01,2013-03-02 19:15:00,
2013-03-02 13:20:00,26.3,17.2,30.29,WNW,294,1.0,7.0,68,0.00,,SKC,0.00,VWS V14.01,2013-03-02 19:20:00,
2013-03-02 13:25:00,26.6,17.8,30.30,NE,53,1.0,7.0,69,0.00,,SKC,0.00,VWS V14.01,2013-03-02 19:25:00,
2013-03-02 13:30:00,26.6,17.5,30.30,NNE,16,3.0,7.0,68,0.00,,SKC,0.00,VWS V14.01,2013-03-02 19:30:00,
2013-03-02 13:35:00,26.6,17.5,30.29,WNW,287,2.0,3.0,68,0.00,,SKC,0.00,VWS V14.01,2013-03-02 19:35:00,
2013-03-02 13:40:00,27.0,17.9,30.29,West,270,1.0,3.0,68,0.00,,SKC,0.00,VWS V14.01,2013-03-02 19:40:00,
2013-03-02 13:45:00,26.7,16.9,30.29,NW,304,3.0,4.0,66,0.00,,SKC,0.00,VWS V14.01,2013-03-02 19:45:00,
2013-03-02 13:50:00,26.1,16.7,30.29,West,273,3.0,7.0,67,0.00,,SKC,0.00,VWS V14.01,2013-03-02 19:50:00,
2013-03-02 13:55:00,26.0,17.2,30.29,WNW,288,4.0,7.0,69,0.00,,SKC,0.00,VWS V14.01,2013-03-02 19:55:00,
2013-03-02 14:00:00,25.8,17.4,30.29,West,270,5.0,7.0,70,0.00,,SKC,0.00,VWS V14.01,2013-03-02 20:00:00,
2013-03-02 14:05:00,26.1,17.7,30.29,West,280,4.0,6.0,70,0.00,,SKC,0.00,VWS V14.01,2013-03-02 20:05:00,
2013-03-02 14:10:00,26.1,17.3,30.29,West,270,4.0,6.0,69,0.00,,SKC,0.00,VWS V14.01,2013-03-02 20:10:00,
2013-03-02 14:15:00,26.3,17.9,30.28,WNW,285,3.0,6.0,70,0.00,,SKC,0.00,VWS V14.01,2013-03-02 20:15:00,
2013-03-02 14:20:00,26.3,17.9,30.28,NNW,339,2.0,6.0,70,0.00,,SKC,0.00,VWS V14.01,2013-03-02 20:20:00,
2013-03-02 14:25:00,26.9,18.1,30.28,North,354,2.0,6.0,69,0.00,,SKC,0.00,VWS V14.01,2013-03-02 20:25:00,
2013-03-02 14:30:00,27.0,17.5,30.28,West,280,3.0,6.0,67,0.00,,SKC,0.00,VWS V14.01,2013-03-02 20:30:00,
2013-03-02 14:35:00,26.6,17.1,30.28,NW,318,1.0,6.0,67,0.00,,SKC,0.00,VWS V14.01,2013-03-02 20:35:00,
2013-03-02 14:40:00,26.9,17.8,30.28,WNW,291,0.0,6.0,68,0.00,,SKC,0.00,VWS V14.01,2013-03-02 20:40:00,
2013-03-02 14:45:00,26.7,17.2,30.28,WNW,290,4.0,6.0,67,0.00,,SKC,0.00,VWS V14.01,2013-03-02 20:45:00,
2013-03-02 14:50:00,26.6,17.1,30.28,West,270,4.0,6.0,67,0.00,,SKC,0.00,VWS V14.01,2013-03-02 20:50:00,
2013-03-02 14:55:00,26.6,17.1,30.28,WNW,290,3.0,6.0,67,0.00,,SKC,0.00,VWS V14.01,2013-03-02 20:55:00,
2013-03-02 15:00:00,26.7,17.9,30.27,WNW,302,2.0,6.0,69,0.00,,SKC,0.00,VWS V14.01,2013-03-02 21:00:00,
2013-03-02 15:05:00,27.3,18.1,30.27,North,11,1.0,4.0,68,0.00,,SKC,0.00,VWS V14.01,2013-03-02 21:05:00,
2013-03-02 15:10:00,27.8,18.6,30.27,NNE,19,1.0,4.0,68,0.00,,SKC,0.00,VWS V14.01,2013-03-02 21:10:00,
2013-03-02 15:15:00,28.1,18.6,30.27,NNE,15,2.0,4.0,67,0.00,,SKC,0.00,VWS V14.01,2013-03-02 21:15:00,
2013-03-02 15:20:00,28.2,18.3,30.27,North,8,1.0,4.0,66,0.00,,SKC,0.00,VWS V14.01,2013-03-02 21:20:00,
2013-03-02 15:25:00,28.2,18.3,30.27,WNW,288,1.0,1.0,66,0.00,,SKC,0.00,VWS V14.01,2013-03-02 21:25:00,
2013-03-02 15:30:00,28.3,18.4,30.27,West,267,0.0,3.0,66,0.00,,SKC,0.00,VWS V14.01,2013-03-02 21:30:00,
2013-03-02 15:35:00,29.1,18.8,30.27,NE,36,1.0,2.0,65,0.00,,SKC,0.00,VWS V14.01,2013-03-02 21:35:00,
2013-03-02 15:40:00,29.3,19.4,30.27,East,81,3.0,3.0,66,0.00,,SKC,0.00,VWS V14.01,2013-03-02 21:40:00,
2013-03-02 15:45:00,29.3,18.6,30.27,NNW,343,0.0,3.0,64,0.00,,SKC,0.00,VWS V14.01,2013-03-02 21:45:00,
2013-03-02 15:50:00,30.1,19.8,30.27,NNW,339,0.0,3.0,65,0.00,,SKC,0.00,VWS V14.01,2013-03-02 21:50:00,
2013-03-02 15:55:00,30.5,19.0,30.27,ESE,117,1.0,4.0,62,0.00,,SKC,0.00,VWS V14.01,2013-03-02 21:55:00,
2013-03-02 16:00:00,29.8,18.4,30.27,East,89,0.0,0.0,62,0.00,,SKC,0.00,VWS V14.01,2013-03-02 22:00:00,
2013-03-02 16:01:00,29.8,18.4,30.27,East,89,0.0,0.0,62,0.00,,SKC,0.00,VWS V14.01,2013-03-02 22:01:00,
2013-03-02 16:06:00,30.3,19.2,30.26,NNE,26,0.0,2.0,63,0.00,,SKC,0.00,VWS V14.01,2013-03-02 22:06:00,
2013-03-02 16:11:00,30.1,18.7,30.26,ESE,111,0.0,2.0,62,0.00,,SKC,0.00,VWS V14.01,2013-03-02 22:11:00,
2013-03-02 16:16:00,29.9,18.1,30.27,North,5,1.0,3.0,61,0.00,,SKC,0.00,VWS V14.01,2013-03-02 22:16:00,
2013-03-02 16:21:00,29.5,18.1,30.27,NNE,31,0.0,3.0,62,0.00,,SKC,0.00,VWS V14.01,2013-03-02 22:21:00,
2013-03-02 16:26:00,29.4,18.4,30.27,NE,47,0.0,3.0,63,0.00,,SKC,0.00,VWS V14.01,2013-03-02 22:26:00,
2013-03-02 16:31:00,29.9,18.9,30.26,West,276,1.0,1.0,63,0.00,,SKC,0.00,VWS V14.01,2013-03-02 22:31:00,
2013-03-02 16:36:00,29.9,18.9,30.26,SW,221,0.0,2.0,63,0.00,,SKC,0.00,VWS V14.01,2013-03-02 22:36:00,
2013-03-02 16:41:00,30.1,18.3,30.26,SE,137,1.0,2.0,61,0.00,,SKC,0.00,VWS V14.01,2013-03-02 22:41:00,
2013-03-02 16:46:00,29.2,17.8,30.26,ESE,121,1.0,2.0,62,0.00,,SKC,0.00,VWS V14.01,2013-03-02 22:46:00,
2013-03-02 16:51:00,28.8,17.8,30.26,SSE,148,1.0,2.0,63,0.00,,SKC,0.00,VWS V14.01,2013-03-02 22:51:00,
2013-03-02 16:56:00,28.5,17.5,30.26,SE,132,1.0,2.0,63,0.00,,SKC,0.00,VWS V14.01,2013-03-02 22:56:00,
2013-03-02 17:00:00,28.1,17.9,30.26,SE,133,1.0,2.0,65,0.00,,SKC,0.00,VWS V14.01,2013-03-02 23:00:00,
2013-03-02 17:01:00,28.0,17.8,30.26,SE,125,2.0,2.0,65,0.00,,SKC,0.00,VWS V14.01,2013-03-02 23:01:00,
2013-03-02 17:06:00,27.5,17.3,30.26,SE,126,1.0,2.0,65,0.00,,SKC,0.00,VWS V14.01,2013-03-02 23:06:00,
2013-03-02 17:11:00,27.2,17.7,30.25,SE,142,1.0,2.0,67,0.00,,SKC,0.00,VWS V14.01,2013-03-02 23:11:00,
2013-03-02 17:16:00,27.2,17.4,30.25,SSE,155,0.0,2.0,66,0.00,,SKC,0.00,VWS V14.01,2013-03-02 23:16:00,
2013-03-02 17:21:00,27.3,17.5,30.25,SSE,148,0.0,2.0,66,0.00,,SKC,0.00,VWS V14.01,2013-03-02 23:21:00,
2013-03-02 17:26:00,27.6,18.1,30.25,SSE,165,0.0,2.0,67,0.00,,SKC,0.00,VWS V14.01,2013-03-02 23:26:00,
2013-03-02 17:30:00,28.5,18.2,30.25,SSE,165,0.0,2.0,65,0.00,,SKC,0.00,VWS V14.01,2013-03-02 23:30:00,
2013-03-02 17:31:00,28.6,18.3,30.25,SSE,165,0.0,0.0,65,0.00,,SKC,0.00,VWS V14.01,2013-03-02 23:31:00,
2013-03-02 17:36:00,28.8,17.8,30.25,SSE,165,0.0,1.0,63,0.00,,SKC,0.00,VWS V14.01,2013-03-02 23:36:00,
2013-03-02 17:41:00,27.5,17.6,30.25,WSW,243,1.0,1.0,66,0.00,,SKC,0.00,VWS V14.01,2013-03-02 23:41:00,
2013-03-02 17:46:00,26.1,18.3,30.25,West,278,3.0,3.0,72,0.00,,SKC,0.00,VWS V14.01,2013-03-02 23:46:00,
2013-03-02 17:51:00,25.4,18.3,30.25,WNW,282,2.0,3.0,74,0.00,,SKC,0.00,VWS V14.01,2013-03-02 23:51:00,
2013-03-02 17:56:00,25.0,18.2,30.25,WSW,243,1.0,3.0,75,0.00,,SKC,0.00,VWS V14.01,2013-03-02 23:56:00,
2013-03-02 18:00:00,24.5,17.7,30.25,West,281,2.0,4.0,75,0.00,,SKC,0.00,VWS V14.01,2013-03-03 00:00:00,
2013-03-02 18:01:00,24.5,17.7,30.25,West,271,1.0,2.0,75,0.00,,SKC,0.00,VWS V14.01,2013-03-03 00:01:00,
2013-03-02 18:06:00,24.2,17.7,30.25,West,271,0.0,2.0,76,0.00,,SKC,0.00,VWS V14.01,2013-03-03 00:06:00,
2013-03-02 18:11:00,23.9,17.5,30.25,SW,229,0.0,2.0,76,0.00,,SKC,0.00,VWS V14.01,2013-03-03 00:11:00,
2013-03-02 18:16:00,23.3,17.2,30.25,SW,229,0.0,2.0,77,0.00,,SKC,0.00,VWS V14.01,2013-03-03 00:16:00,
2013-03-02 18:21:00,23.0,17.2,30.25,West,267,0.0,2.0,78,0.00,,SKC,0.00,VWS V14.01,2013-03-03 00:21:00,
2013-03-02 18:26:00,22.9,17.4,30.25,West,274,0.0,2.0,79,0.00,,SKC,0.00,VWS V14.01,2013-03-03 00:26:00,
2013-03-02 18:30:00,22.6,16.8,30.25,West,274,0.0,2.0,78,0.00,,SKC,0.00,VWS V14.01,2013-03-03 00:30:00,
2013-03-02 18:31:00,22.6,17.1,30.25,West,274,0.0,0.0,79,0.00,,SKC,0.00,VWS V14.01,2013-03-03 00:31:00,
2013-03-02 18:36:00,22.5,17.0,30.25,West,274,0.0,0.0,79,0.00,,SKC,0.00,VWS V14.01,2013-03-03 00:36:00,
2013-03-02 18:41:00,22.3,17.1,30.25,West,274,0.0,0.0,80,0.00,,SKC,0.00,VWS V14.01,2013-03-03 00:41:00,
2013-03-02 18:46:00,22.0,16.8,30.25,West,274,0.0,0.0,80,0.00,,SKC,0.00,VWS V14.01,2013-03-03 00:46:00,
2013-03-02 18:51:00,21.6,16.4,30.25,West,274,0.0,0.0,80,0.00,,SKC,0.00,VWS V14.01,2013-03-03 00:51:00,
2013-03-02 18:56:00,21.4,16.5,30.25,West,274,0.0,1.0,81,0.00,,SKC,0.00,VWS V14.01,2013-03-03 00:56:00,
2013-03-02 19:00:00,21.3,16.4,30.25,WSW,248,0.0,1.0,81,0.00,,SKC,0.00,VWS V14.01,2013-03-03 01:00:00,
2013-03-02 19:01:00,21.3,16.4,30.25,WSW,248,0.0,0.0,81,0.00,,SKC,0.00,VWS V14.01,2013-03-03 01:01:00,
2013-03-02 19:06:00,20.9,16.3,30.25,WSW,249,0.0,1.0,82,0.00,,SKC,0.00,VWS V14.01,2013-03-03 01:06:00,
2013-03-02 19:11:00,20.8,16.2,30.25,WSW,249,0.0,1.0,82,0.00,,SKC,0.00,VWS V14.01,2013-03-03 01:11:00,
2013-03-02 19:16:00,20.6,16.0,30.25,WSW,249,0.0,1.0,82,0.00,,SKC,0.00,VWS V14.01,2013-03-03 01:16:00,
2013-03-02 19:21:00,20.4,15.8,30.25,WSW,249,0.0,1.0,82,0.00,,SKC,0.00,VWS V14.01,2013-03-03 01:21:00,
2013-03-02 19:26:00,20.1,15.8,30.25,WSW,249,0.0,1.0,83,0.00,,SKC,0.00,VWS V14.01,2013-03-03 01:26:00,
2013-03-02 19:30:00,19.7,15.7,30.25,WSW,249,0.0,1.0,84,0.00,,SKC,0.00,VWS V14.01,2013-03-03 01:30:00,
2013-03-02 19:31:00,19.7,15.7,30.25,WSW,249,0.0,0.0,84,0.00,,SKC,0.00,VWS V14.01,2013-03-03 01:31:00,
2013-03-02 19:36:00,19.4,15.6,30.24,WSW,249,0.0,0.0,85,0.00,,SKC,0.00,VWS V14.01,2013-03-03 01:36:00,
2013-03-02 19:41:00,19.6,15.8,30.25,WSW,249,0.0,0.0,85,0.00,,SKC,0.00,VWS V14.01,2013-03-03 01:41:00,
2013-03-02 19:46:00,19.8,15.8,30.24,WSW,249,0.0,0.0,84,0.00,,SKC,0.00,VWS V14.01,2013-03-03 01:46:00,
2013-03-02 19:51:00,19.7,15.4,30.24,WSW,249,0.0,0.0,83,0.00,,SKC,0.00,VWS V14.01,2013-03-03 01:51:00,
2013-03-02 19:56:00,19.7,15.7,30.24,WSW,249,0.0,0.0,84,0.00,,SKC,0.00,VWS V14.01,2013-03-03 01:56:00,
2013-03-02 20:00:00,19.5,15.5,30.24,West,264,0.0,1.0,84,0.00,,SKC,0.00,VWS V14.01,2013-03-03 02:00:00,
2013-03-02 20:01:00,19.6,15.6,30.24,West,264,0.0,0.0,84,0.00,,SKC,0.00,VWS V14.01,2013-03-03 02:01:00,
2013-03-02 20:06:00,19.4,15.6,30.24,West,264,0.0,0.0,85,0.00,,SKC,0.00,VWS V14.01,2013-03-03 02:06:00,
2013-03-02 20:11:00,19.5,15.7,30.24,West,264,0.0,0.0,85,0.00,,SKC,0.00,VWS V14.01,2013-03-03 02:11:00,
2013-03-02 20:16:00,19.5,15.7,30.24,West,264,0.0,0.0,85,0.00,,SKC,0.00,VWS V14.01,2013-03-03 02:16:00,
2013-03-02 20:21:00,19.6,16.1,30.25,West,264,0.0,0.0,86,0.00,,SKC,0.00,VWS V14.01,2013-03-03 02:21:00,
2013-03-02 20:26:00,20.0,16.2,30.25,West,264,0.0,0.0,85,0.00,,SKC,0.00,VWS V14.01,2013-03-03 02:26:00,
2013-03-02 20:30:00,20.2,16.4,30.24,West,264,0.0,0.0,85,0.00,,SKC,0.00,VWS V14.01,2013-03-03 02:30:00,
2013-03-02 20:31:00,20.2,16.7,30.24,West,264,0.0,0.0,86,0.00,,SKC,0.00,VWS V14.01,2013-03-03 02:31:00,
2013-03-02 20:36:00,20.4,16.9,30.25,West,264,0.0,0.0,86,0.00,,SKC,0.00,VWS V14.01,2013-03-03 02:36:00,
2013-03-02 20:41:00,20.5,16.7,30.25,West,264,0.0,0.0,85,0.00,,SKC,0.00,VWS V14.01,2013-03-03 02:41:00,
2013-03-02 20:46:00,20.6,16.8,30.25,West,264,0.0,0.0,85,0.00,,SKC,0.00,VWS V14.01,2013-03-03 02:46:00,
2013-03-02 20:51:00,20.9,17.1,30.25,West,264,0.0,0.0,85,0.00,,SKC,0.00,VWS V14.01,2013-03-03 02:51:00,
2013-03-02 20:56:00,21.1,17.0,30.25,West,270,0.0,0.0,84,0.00,,SKC,0.00,VWS V14.01,2013-03-03 02:56:00,
2013-03-02 21:00:00,21.3,17.0,30.25,NNW,338,0.0,1.0,83,0.00,,SKC,0.00,VWS V14.01,2013-03-03 03:00:00,
2013-03-02 21:01:00,21.3,17.0,30.25,NNW,338,0.0,0.0,83,0.00,,SKC,0.00,VWS V14.01,2013-03-03 03:01:00,
2013-03-02 21:06:00,21.3,17.0,30.25,North,5,0.0,1.0,83,0.00,,SKC,0.00,VWS V14.01,2013-03-03 03:06:00,
2013-03-02 21:11:00,21.4,16.8,30.25,North,359,0.0,1.0,82,0.00,,SKC,0.00,VWS V14.01,2013-03-03 03:11:00,
2013-03-02 21:16:00,21.5,16.9,30.25,North,360,0.0,1.0,82,0.00,,SKC,0.00,VWS V14.01,2013-03-03 03:16:00,
2013-03-02 21:21:00,21.5,16.9,30.25,North,360,0.0,1.0,82,0.00,,SKC,0.00,VWS V14.01,2013-03-03 03:21:00,
2013-03-02 21:26:00,21.6,17.0,30.25,North,359,0.0,1.0,82,0.00,,SKC,0.00,VWS V14.01,2013-03-03 03:26:00,
2013-03-02 21:30:00,21.6,17.0,30.25,North,359,0.0,1.0,82,0.00,,SKC,0.00,VWS V14.01,2013-03-03 03:30:00,
2013-03-02 21:31:00,21.6,17.0,30.25,North,359,0.0,1.0,82,0.00,,SKC,0.00,VWS V14.01,2013-03-03 03:31:00,
2013-03-02 21:36:00,21.6,16.7,30.25,NNW,327,0.0,1.0,81,0.00,,SKC,0.00,VWS V14.01,2013-03-03 03:36:00,
2013-03-02 21:41:00,21.6,16.7,30.25,NW,316,0.0,1.0,81,0.00,,SKC,0.00,VWS V14.01,2013-03-03 03:41:00,
2013-03-02 21:46:00,21.6,16.7,30.25,NW,313,0.0,1.0,81,0.00,,SKC,0.00,VWS V14.01,2013-03-03 03:46:00,
2013-03-02 21:51:00,21.6,16.4,30.24,NW,314,0.0,1.0,80,0.00,,SKC,0.00,VWS V14.01,2013-03-03 03:51:00,
2013-03-02 21:56:00,21.6,16.4,30.24,NW,314,0.0,1.0,80,0.00,,SKC,0.00,VWS V14.01,2013-03-03 03:56:00,
2013-03-02 22:00:00,21.6,16.4,30.24,NW,314,0.0,1.0,80,0.00,,SKC,0.00,VWS V14.01,2013-03-03 04:00:00,
2013-03-02 22:01:00,21.6,16.4,30.24,NW,315,0.0,0.0,80,0.00,,SKC,0.00,VWS V14.01,2013-03-03 04:01:00,
2013-03-02 22:06:00,21.6,16.4,30.24,NW,314,0.0,0.0,80,0.00,,SKC,0.00,VWS V14.01,2013-03-03 04:06:00,
2013-03-02 22:11:00,21.7,16.8,30.23,NW,313,0.0,0.0,81,0.00,,SKC,0.00,VWS V14.01,2013-03-03 04:11:00,
2013-03-02 22:16:00,21.7,16.8,30.23,NW,313,0.0,0.0,81,0.00,,SKC,0.00,VWS V14.01,2013-03-03 04:16:00,
2013-03-02 22:21:00,21.7,16.8,30.23,NW,313,0.0,0.0,81,0.00,,SKC,0.00,VWS V14.01,2013-03-03 04:21:00,
2013-03-02 22:26:00,21.7,17.1,30.23,NW,313,0.0,0.0,82,0.00,,SKC,0.00,VWS V14.01,2013-03-03 04:26:00,
2013-03-02 22:30:00,21.7,16.8,30.23,NW,315,0.0,0.0,81,0.00,,SKC,0.00,VWS V14.01,2013-03-03 04:30:00,
2013-03-02 22:31:00,21.7,16.8,30.23,NW,313,0.0,0.0,81,0.00,,SKC,0.00,VWS V14.01,2013-03-03 04:31:00,
2013-03-02 22:36:00,21.6,16.7,30.23,NW,313,0.0,0.0,81,0.00,,SKC,0.00,VWS V14.01,2013-03-03 04:36:00,
2013-03-02 22:41:00,21.6,16.7,30.23,NW,314,0.0,0.0,81,0.00,,SKC,0.00,VWS V14.01,2013-03-03 04:41:00,
2013-03-02 22:46:00,21.6,16.7,30.23,NW,313,0.0,0.0,81,0.00,,SKC,0.00,VWS V14.01,2013-03-03 04:46:00,
2013-03-02 22:51:00,21.6,16.7,30.23,NW,314,0.0,0.0,81,0.00,,SKC,0.00,VWS V14.01,2013-03-03 04:51:00,
2013-03-02 22:56:00,21.6,16.7,30.22,NW,314,0.0,0.0,81,0.00,,SKC,0.00,VWS V14.01,2013-03-03 04:56:00,
2013-03-02 23:00:00,21.7,16.8,30.22,NW,314,0.0,0.0,81,0.00,,SKC,0.00,VWS V14.01,2013-03-03 05:00:00,
2013-03-02 23:05:00,21.7,17.1,30.22,NW,314,0.0,0.0,82,0.00,,SKC,0.00,VWS V14.01,2013-03-03 05:05:00,
2013-03-02 23:10:00,21.7,17.1,30.22,NW,313,0.0,0.0,82,0.00,,SKC,0.00,VWS V14.01,2013-03-03 05:10:00,
2013-03-02 23:15:00,21.8,17.2,30.22,NW,313,0.0,0.0,82,0.00,,SKC,0.00,VWS V14.01,2013-03-03 05:15:00,
2013-03-02 23:20:00,21.8,17.2,30.22,NW,314,0.0,0.0,82,0.00,,SKC,0.00,VWS V14.01,2013-03-03 05:20:00,
2013-03-02 23:25:00,21.7,17.1,30.22,NW,315,0.0,0.0,82,0.00,,SKC,0.00,VWS V14.01,2013-03-03 05:25:00,
2013-03-02 23:30:00,21.7,17.3,30.21,NW,315,0.0,0.0,83,0.00,,SKC,0.00,VWS V14.01,2013-03-03 05:30:00,
2013-03-02 23:35:00,21.6,17.2,30.21,SE,146,0.0,1.0,83,0.00,,SKC,0.00,VWS V14.01,2013-03-03 05:35:00,
2013-03-02 23:40:00,21.5,17.1,30.20,SE,131,0.0,1.0,83,0.00,,SKC,0.00,VWS V14.01,2013-03-03 05:40:00,
2013-03-02 23:45:00,21.5,17.1,30.20,SE,130,1.0,2.0,83,0.00,,SKC,0.00,VWS V14.01,2013-03-03 05:45:00,
2013-03-02 23:50:00,21.4,17.3,30.20,SE,139,2.0,2.0,84,0.00,,SKC,0.00,VWS V14.01,2013-03-03 05:50:00,
2013-03-02 23:55:00,21.3,17.5,30.20,SE,127,2.0,3.0,85,0.00,,SKC,0.00,VWS V14.01,2013-03-03 05:55:00,